Weather in Toroshino

Russia / Pskov Oblast     57°55′56″N   28°35′44″E
temp.,
°C
wind,
m/s
gust,
m/s
humid.,
%
clouds,
%
prec.,
mm/h
press.,
hPa
HPBL,
m
13 april, tue
tue1300:00+9sse3127138 0.0 1019309
03:00+6sse2981100 0.0 1019208
06:00+6se2484100 0.0 101992
09:00+9sse247788 0.0 1019195
12:00+9ssw1277100 0.0 102085
15:00+11w237274 0.0 1020399
18:00+8nw4781100 0.0 1019402
21:00+5nnw4786100 0.0 1020408
14 april, wed
wed1400:00+4n3885100 0.0 1020406
03:00+3nnw41089100 0.0 1019488
06:00+2n41180100 0.0 1019550
09:00+3n4968100 0.0 1020740
12:00+3n3769100 0.0 1021613
15:00+6ne2556100 0.0 1021845
18:00+6e2562100 0.0 1021530
21:00+4ene127898 0.0 102293
15 april, thu
thu1500:00+3nne278296 0.0 1023240
03:00+3nne31080100 0.0 1023437
06:00+4ne41271100 0.0 1023607
09:00+4nne51366100 0.0 1024669
12:00+7ne5115699 0.0 1024923
15:00+10ne695090 0.0 10231192
18:00+8ne51058100 0.0 10241044
21:00+6ne51366100 0.0 1025795
16 april, fri
fri1600:00+4ne5137091 0.0 1025562
03:00+3ne5137297 0.0 1025498
06:00+3ne5137596 0.0 1026493
09:00+5ne5136422 0.0 1026563
12:00+10ene69478 0.0 1027972
15:00+12ene69355 0.0 10271269
18:00+11ene510435 0.0 10271239
21:00+7ne413545 0.0 1029560
17 april, sat
sat1700:00+5ene514656 0.0 1030515
03:00+4ene4137082 0.0 1031461
06:00+3ene41373100 0.0 1032386
09:00+6ene5115620 0.0 1033550
12:00+11e58415 0.0 10331128
15:00+12e57370 0.0 10331383
18:00+12e46452 0.0 10331351
21:00+6ene29660 0.0 1033212